User: anonymous   Login
Location: St. Malo Provincial Park
(49.3214°N, 96.9305°W)
Time: 08:13:11
(UTC-05:00)
Language:

Iridium 6 - Orbit

View from above orbital plane
View from above orbital plane
View from above satellite
View from above satellite

Ground track
Ground track

The orbit data is extracted from the following two-line orbital elements,

1 24794U 97020C   15085.51374858  .00000165  00000-0  51899-4 0  9992
2 24794 086.3936 298.9916 0002140 091.2408 268.9033 14.34215024936575
Epoch (UTC): 26 March 2015 12:19:47
Eccentricity: 0.0002140
inclination: 86.3936°
perigee height: 776 km
apogee height: 779 km
right ascension of ascending node: 298.9916°
argument of perigee: 91.2408°
revolutions per day: 14.34215024
mean anomaly at epoch: 268.9033°
orbit number at epoch: 93657

The dashed part of the orbit path shows where the satellite is in the earth's shadow,  

DLR